Погода в Подшивалове

Россия / Удмуртская Республика     56°43′59″N   52°58′03″E
темп.,
°C
ветер,
м/с
пор.,
м/с
влажн.,
%
обл.,
%
осадки,
мм/ч
давл.,
гПа
погр.,
м
27 октября, ср
ср2701:000юз4982100 0.0 1018364
04:000юз4986100 0.0 1018321
07:00−1юз499099 0.0 1017281
10:00+1юз4979100 0.0 1016447
13:00+4юз5968100 0.0 1015697
16:00+4юз51072100 0.0 1014634
19:00+3юз51275100 0.0 1013577
22:00+3юз61372100 0.0 1011540
28 октября, чт
чт2801:00+3юз51271100 0.0 1009600
04:00+1юз61496100 0.8 1007724
07:00+2зюз61396100 0.3 1006851
10:00+4зюз71391100 0.3 1007974
13:00+5з71186100 0.1 10091023
16:00+5зюз61190100 0.1 1009744
19:00+5зюз51182100 0.0 1010620
22:00+4з51194100 0.1 1010825
29 октября, пт
пт2901:00+1с41097100 1.1 1013466
04:00−3с510725 1.3 1018586
07:00−4с48715 0.0 1022526
10:00−3с45594 0.0 1025600
13:000ссз34455 0.0 1027781
16:00−1зсз24505 0.0 1028139
19:00−3зюз226092 0.0 102931
22:00−3юз3760100 0.0 1028226
30 октября, сб
сб3001:00−1ююз51252100 0.1 1026511
04:000ююз61454100 0.6 1023779
07:00+1юз71567100 0.4 1020699
10:00+4зюз71685100 0.4 1019779
13:00+5з71590100 0.0 1018764
16:00+6з71589100 0.0 1020680
19:00+5з61391100 0.0 1021530
22:00+6зсз5129299 0.0 1023513
31 октября, вс
вс3101:00+6зсз4109370 0.0 1024417
04:00+5з3895100 0.0 1025252
07:00+5зюз3795100 0.1 1026187
10:00+6зюз3695100 0.1 1026224
13:00+7юз3891100 0.0 1025378
16:00+7юз488987 0.0 1024295
19:00+6юз51282100 0.0 1024338
22:00+5зюз51381100 0.0 1023398